TINTIN A (43216 NORAD) Tracking and Keplerian Element Data

This shows tracking and keplerian element data for the satellite.

Feedback or suggestion? Click here.




ElementValue
Catalog43216
NameTINTIN A
Epoch Orbit2662
Epoch Day228.95441239
Epoch Year2018
RAAN235.5845
Inclination97.4543
Eccentricity0.0014911
Argument of Perigee32.8164
Mean Anonmoly327.3994
Mean Motion15.19750032
Decay Rate1.661E-05
L11 43216U 18020B 18228.95441239 .00001661 00000-0 80718-4 0 9997
L22 43216 97.4543 235.5845 0014911 32.8164 327.3994 15.19750032 26628

Live tracking and technical data element details for TINTIN A (NORAD 43216). TINTIN A can be tracked NOW for your location showing map with azimuth and elevation plus other details from your city location.

Track the satellite on the map from your city or location and see movement details for azimuth, elevation, latitude, longitude, range, height, and movement on the map or in text.







IsCatalogInMostPopularTable: catalog: 43216, numindb: 136
Update: records affected: 1



GetName: 43216 TINTIN A

Hit Count: updated at: Fri, 17 Aug 2018 13:20:32 GMT